Location: Antin
(43.3330°N, 0.2804°E)
Time: 07:39:50
(UTC+00:00)

SME Rocket - Pass Details

Date: 05 June 2022
Orbit: 551 x 2650 km, 99.9° (Epoch: 06 July)

Event Time Altitude Azimuth Distance (km) Brightness Sun altitude
Exits shadow 23:30:38 - 95° (E) 2,742 6.2 -23.8°
Reaches altitude 10° 23:32:12 10° 81° (E) 2,416 6.1 -23.8°
Maximum altitude 23:35:15 16° 46° (NE) 2,300 6.4 -23.8°
Drops below altitude 10° 23:38:57 10° 12° (NNE) 3,045 7.6 -23.9°
Sets 23:43:15 0° 353° (N) 4,439 8.9 -24.0°
